| time (UTC) | temp F | wind direction | speed knots | gust knots | rain 1hr in | rain 24hr in | rain mn in | humidity % | barometer mb |
| 20260507174550 | 61 | 279 | 1.7 | 8.7 | 0.00 | 0.30 | 0.23 | 49 | 1002.0 |
| 20260507173044 | 61 | 242 | 2.6 | 7.8 | 0.00 | 0.30 | 0.23 | 53 | 1002.1 |
| 20260507171549 | 60 | 329 | 2.6 | 9.6 | 0.00 | 0.30 | 0.23 | 50 | 1002.2 |
| 20260507170041 | 60 | 320 | 5.2 | 9.6 | 0.00 | 0.30 | 0.23 | 52 | 1002.4 |
| 20260507164539 | 58 | 237 | 4.3 | 9.6 | 0.00 | 0.30 | 0.23 | 54 | 1002.4 |
| 20260507163037 | 59 | 101 | 2.6 | 7.8 | 0.00 | 0.30 | 0.23 | 58 | 1002.6 |
| 20260507161539 | 58 | 355 | 2.6 | 8.7 | 0.00 | 0.30 | 0.23 | 57 | 1002.9 |
| 20260507160034 | 57 | 234 | 3.5 | 10.4 | 0.00 | 0.30 | 0.23 | 61 | 1003.1 |
| 20260507154536 | 57 | 234 | 1.7 | 12.2 | 0.00 | 0.30 | 0.23 | 56 | 1003.2 |
| 20260507153039 | 56 | 259 | 5.2 | 11.3 | 0.00 | 0.30 | 0.23 | 61 | 1003.3 |
| 20260507151526 | 56 | 5 | 3.5 | 7.8 | 0.00 | 0.30 | 0.23 | 67 | 1003.4 |
| 20260507150026 | 56 | 275 | 1.7 | 7.0 | 0.00 | 0.30 | 0.23 | 70 | 1003.8 |
| 20260507144521 | 55 | 267 | 2.6 | 7.8 | 0.00 | 0.30 | 0.23 | 73 | 1004.0 |
| 20260507143025 | 54 | 263 | 5.2 | 10.4 | 0.00 | 0.30 | 0.23 | 73 | 1003.9 |
| 20260507141518 | 54 | 282 | 3.5 | 8.7 | 0.00 | 0.30 | 0.23 | 75 | 1004.3 |
| 20260507140015 | 52 | 326 | 1.7 | 7.8 | 0.00 | 0.30 | 0.23 | 80 | 1004.7 |
| 20260507134515 | 51 | 276 | 1.7 | 7.8 | 0.00 | 0.30 | 0.23 | 81 | 1004.2 |
| 20260507133013 | 51 | 255 | 2.6 | 8.7 | 0.00 | 0.30 | 0.23 | 83 | 1004.3 |
| 20260507131518 | 51 | 290 | 2.6 | 8.7 | 0.00 | 0.30 | 0.23 | 85 | 1004.2 |
| 20260507130021 | 50 | 270 | 1.7 | 7.0 | 0.00 | 0.30 | 0.23 | 87 | 1004.1 |
| 20260507124511 | 49 | 232 | 0.0 | 4.3 | 0.00 | 0.31 | 0.23 | 90 | 1003.9 |
| 20260507123009 | 49 | 288 | 1.7 | 7.0 | 0.00 | 0.31 | 0.23 | 90 | 1004.7 |
| 20260507121507 | 48 | 293 | 0.9 | 7.0 | 0.00 | 0.31 | 0.23 | 91 | 1005.1 |
| 20260507120006 | 48 | 268 | 0.0 | 3.5 | 0.00 | 0.31 | 0.23 | 92 | 1004.8 |
| 20260507114504 | 48 | 318 | 2.6 | 8.7 | 0.00 | 0.31 | 0.23 | 92 | 1004.6 |
| 20260507113000 | 48 | 281 | 0.9 | 4.3 | 0.00 | 0.31 | 0.23 | 95 | 1004.4 |
| 20260507111559 | 48 | 263 | 0.9 | 3.5 | 0.00 | 0.31 | 0.23 | 95 | 1003.9 |
| 20260507110057 | 49 | 350 | 1.7 | 5.2 | 0.00 | 0.31 | 0.23 | 95 | 1003.9 |
| 20260507104556 | 49 | 289 | 1.7 | 4.3 | 0.00 | 0.31 | 0.23 | 95 | 1003.9 |
| 20260507103056 | 49 | 294 | 0.9 | 3.5 | 0.00 | 0.31 | 0.23 | 95 | 1003.9 |
| 20260507101557 | 49 | 261 | 1.7 | 3.5 | 0.00 | 0.31 | 0.23 | 95 | 1003.7 |
| 20260507100054 | 49 | 286 | 0.0 | 3.5 | 0.00 | 0.31 | 0.23 | 95 | 1004.1 |
| 20260507094553 | 49 | 331 | 0.9 | 6.1 | 0.00 | 0.31 | 0.23 | 95 | 1003.8 |
| 20260507093055 | 49 | 292 | 0.0 | 3.5 | 0.00 | 0.31 | 0.23 | 95 | 1002.6 |
| 20260507091551 | 49 | 284 | 1.7 | 4.3 | 0.00 | 0.31 | 0.23 | 95 | 1003.0 |
| 20260507090049 | 49 | 279 | 1.7 | 5.2 | 0.01 | 0.31 | 0.23 | 95 | 1003.4 |
| 20260507084550 | 50 | 268 | 2.6 | 7.0 | 0.01 | 0.31 | 0.23 | 95 | 1002.9 |
| 20260507083047 | 50 | 46 | 0.9 | 5.2 | 0.01 | 0.31 | 0.23 | 95 | 1002.9 |
| 20260507081545 | 51 | 283 | 1.7 | 5.2 | 0.05 | 0.31 | 0.23 | 96 | 1002.8 |
| 20260507080046 | 51 | 257 | 0.0 | 4.3 | 0.12 | 0.30 | 0.22 | 96 | 1002.4 |
| 20260507074545 | 50 | 234 | 0.9 | 2.6 | 0.18 | 0.30 | 0.22 | 96 | 1002.0 |
| 20260507073043 | 50 | 269 | 0.0 | 2.6 | 0.18 | 0.30 | 0.22 | 95 | 1002.0 |
| 20260507071601 | 51 | 200 | 2.6 | 7.0 | 0.14 | 0.26 | 0.18 | 95 | 1002.6 |
| 20260507070040 | 51 | 198 | 2.6 | 8.7 | 0.06 | 0.18 | 0.10 | 95 | 1002.7 |
| 20260507064539 | 51 | 215 | 2.6 | 9.6 | 0.00 | 0.12 | 0.04 | 95 | 1002.3 |
| 20260507063043 | 51 | 218 | 5.2 | 9.6 | 0.01 | 0.12 | 0.04 | 95 | 1002.2 |
| 20260507061538 | 51 | 190 | 7.0 | 11.3 | 0.02 | 0.12 | 0.04 | 95 | 1002.5 |
| 20260507060036 | 51 | 225 | 6.1 | 11.3 | 0.03 | 0.12 | 0.04 | 94 | 1002.5 |
| 20260507054531 | 52 | 200 | 7.8 | 12.2 | 0.03 | 0.12 | 0.04 | 94 | 1002.4 |
| 20260507053044 | 52 | 186 | 9.6 | 18.2 | 0.02 | 0.11 | 0.03 | 94 | 1002.5 |
| 20260507051536 | 52 | 184 | 7.8 | 13.9 | 0.01 | 0.10 | 0.02 | 94 | 1002.6 |
| 20260507050032 | 52 | 206 | 7.0 | 16.5 | 0.01 | 0.09 | 0.01 | 94 | 1002.9 |
| 20260507044526 | 53 | 200 | 7.0 | 16.5 | 0.03 | 0.09 | 0.01 | 94 | 1003.0 |
| 20260507043021 | 53 | 200 | 6.1 | 15.6 | 0.04 | 0.09 | 0.01 | 94 | 1003.3 |
| 20260507041516 | 53 | 177 | 4.3 | 16.5 | 0.03 | 0.08 | 0.00 | 94 | 1003.8 |
| 20260507040013 | 53 | 215 | 4.3 | 12.2 | 0.04 | 0.08 | 0.00 | 94 | 1003.9 |
| 20260507034526 | 54 | 207 | 6.1 | 16.5 | 0.03 | 0.06 | 0.06 | 94 | 1004.2 |
| 20260507033015 | 53 | 177 | 6.1 | 18.2 | 0.03 | 0.05 | 0.05 | 94 | 1004.1 |
| 20260507031507 | 53 | 157 | 5.2 | 16.5 | 0.04 | 0.05 | 0.05 | 93 | 1004.5 |
| 20260507030005 | 53 | 142 | 8.7 | 17.4 | 0.03 | 0.04 | 0.04 | 93 | 1004.8 |
| 20260507024504 | 53 | 189 | 6.1 | 17.4 | 0.02 | 0.03 | 0.03 | 93 | 1005.2 |
| 20260507023100 | 54 | 177 | 7.8 | 14.8 | 0.01 | 0.02 | 0.02 | 92 | 1005.8 |
| 20260507021557 | 54 | 167 | 8.7 | 12.2 | 0.00 | 0.01 | 0.01 | 91 | 1006.2 |
| 20260507020055 | 54 | 203 | 6.1 | 16.5 | 0.00 | 0.01 | 0.01 | 91 | 1006.3 |
| 20260507014602 | 54 | 182 | 9.6 | 19.1 | 0.00 | 0.01 | 0.01 | 90 | 1006.5 |
| 20260507013053 | 54 | 161 | 6.1 | 16.5 | 0.00 | 0.01 | 0.01 | 90 | 1006.8 |
| 20260507011550 | 54 | 182 | 6.1 | 16.5 | 0.00 | 0.01 | 0.01 | 90 | 1007.2 |
| 20260507010056 | 54 | 137 | 8.7 | 17.4 | 0.00 | 0.01 | 0.01 | 89 | 1007.6 |
| 20260507004554 | 54 | 182 | 6.1 | 13.9 | 0.00 | 0.01 | 0.01 | 89 | 1007.6 |
| 20260507003048 | 54 | 202 | 4.3 | 13.0 | 0.00 | 0.01 | 0.01 | 89 | 1007.9 |
| 20260507001551 | 54 | 164 | 9.6 | 17.4 | 0.00 | 0.01 | 0.01 | 89 | 1008.0 |
| 20260507000046 | 55 | 132 | 7.0 | 14.8 | 0.00 | 0.01 | 0.01 | 88 | 1007.8 |
| 20260506234545 | 55 | 168 | 6.1 | 17.4 | 0.00 | 0.01 | 0.01 | 87 | 1008.6 |
| 20260506233043 | 55 | 174 | 5.2 | 12.2 | 0.00 | 0.01 | 0.01 | 87 | 1008.3 |
| 20260506231541 | 56 | 173 | 6.1 | 11.3 | 0.00 | 0.01 | 0.01 | 86 | 1008.6 |
| 20260506230041 | 56 | 188 | 7.0 | 13.9 | 0.00 | 0.01 | 0.01 | 86 | 1008.9 |
| 20260506224540 | 56 | 185 | 7.0 | 20.0 | 0.00 | 0.01 | 0.01 | 86 | 1008.9 |
| 20260506223039 | 56 | 175 | 9.6 | 22.6 | 0.00 | 0.01 | 0.01 | 86 | 1009.0 |
| 20260506221538 | 56 | 183 | 7.0 | 15.6 | 0.00 | 0.01 | 0.01 | 86 | 1008.9 |
| 20260506220041 | 56 | 183 | 8.7 | 16.5 | 0.00 | 0.01 | 0.01 | 86 | 1009.0 |
| 20260506214548 | 56 | 225 | 5.2 | 13.0 | 0.00 | 0.01 | 0.01 | 86 | 1009.3 |
| 20260506213036 | 56 | 183 | 6.1 | 19.1 | 0.00 | 0.01 | 0.01 | 86 | 1009.5 |
| 20260506211535 | 56 | 155 | 6.1 | 13.9 | 0.00 | 0.01 | 0.01 | 86 | 1008.9 |
| 20260506210035 | 56 | 175 | 7.8 | 17.4 | 0.00 | 0.01 | 0.01 | 86 | 1008.9 |
| 20260506204538 | 56 | 130 | 3.5 | 16.5 | 0.00 | 0.01 | 0.01 | 86 | 1008.8 |
| 20260506203034 | 56 | 200 | 4.3 | 17.4 | 0.00 | 0.01 | 0.01 | 85 | 1009.1 |
| 20260506201534 | 56 | 163 | 5.2 | 13.9 | 0.00 | 0.01 | 0.01 | 85 | 1009.1 |
| 20260506200033 | 57 | 177 | 5.2 | 12.2 | 0.00 | 0.01 | 0.01 | 84 | 1009.1 |
| 20260506194533 | 56 | 184 | 6.1 | 17.4 | 0.00 | 0.01 | 0.01 | 85 | 1009.2 |
| 20260506193031 | 57 | 194 | 6.1 | 13.9 | 0.00 | 0.01 | 0.01 | 85 | 1009.2 |
| 20260506191531 | 57 | 199 | 6.1 | 15.6 | 0.00 | 0.01 | 0.01 | 85 | 1009.3 |
| 20260506190030 | 57 | 167 | 7.8 | 14.8 | 0.00 | 0.01 | 0.01 | 84 | 1009.4 |
| 20260506184529 | 57 | 149 | 7.0 | 16.5 | 0.00 | 0.01 | 0.01 | 85 | 1009.5 |
| 20260506183030 | 56 | 182 | 5.2 | 13.0 | 0.00 | 0.01 | 0.01 | 85 | 1009.6 |
| 20260506181528 | 56 | 234 | 7.8 | 13.0 | 0.00 | 0.01 | 0.01 | 85 | 1009.6 |
| 20260506180027 | 56 | 176 | 7.8 | 19.1 | 0.00 | 0.01 | 0.01 | 85 | 1009.7 |